Weather History for Glasgow, United Kingdom

Change the Weather History Date:

Sunday, September 29, 2013

  Actual Average Record
Temperature  
Mean Temperature 56 °F -  
Max Temperature 64 °F 53 °F 68 °F (2011)
Min Temperature 48 °F 42 °F 41 °F (1998)
Degree Days  
Heating Degree Days 9    
Growing Degree Days 6 (Base 50)    
Moisture  
Dew Point 48 °F    
Average Humidity 79    
Maximum Humidity 94    
Minimum Humidity 59    
Precipitation  
Precipitation 0.00 in - - ()
Sea Level Pressure  
Sea Level Pressure 29.89 in    
Wind  
Wind Speed 10 mph ()    
Max Wind Speed 16 mph    
Max Gust Speed -    
Visibility 6.0 miles    
Events      
Averages and records for this station are not official NWS values.
T = Trace of Precipitation, MM = Missing Value Source: Averaged Metar Reports

Daily Weather History Graph

Daily Weather History Graph

Search for Another Location

Airport:

Trip Planner

Search our weather history database for the weather conditions in past years. The results will help you decide how hot, cold, wet, or windy it might be!

Date:

Astronomy

Sep. 29, 2013 Rise Set
Actual Time 7:16 AM BST 6:58 PM BST
Civil Twilight 6:39 AM BST 7:34 PM BST
Nautical Twilight 5:56 AM BST 8:18 PM BST
Astronomical Twilight 5:11 AM BST 9:03 PM BST
Moon 12:54 AM BST (9/29) 4:30 PM BST (9/29)
Length of Visible Light 12h 54m
Length of Day
11h 41m
Waning Crescent, 29% of the Moon is Illuminated
Sep 29
Waning Crescent
Oct 5
New
Oct 12
First Quarter
Oct 19
Full
Oct 27
Last Quarter

Hourly Weather History & Observations

Time (BST) Temp. Dew Point Humidity Pressure Visibility Wind Dir Wind Speed Gust Speed Precip Events Conditions
12:20 AM 53.6 °F 50.0 °F 88% 29.89 in 5.6 mi East 8.1 mph - N/A   Unknown
12:50 AM 53.6 °F 50.0 °F 88% 29.89 in 5.6 mi East 6.9 mph - N/A   Unknown
1:20 AM 51.8 °F 50.0 °F 94% 29.89 in 5.0 mi East 8.1 mph - N/A   Unknown
1:50 AM 51.8 °F 50.0 °F 94% 29.89 in 5.6 mi East 8.1 mph - N/A   Unknown
2:20 AM 51.8 °F 48.2 °F 88% 29.89 in - East 9.2 mph - N/A   Clear
2:50 AM 51.8 °F 48.2 °F 88% 29.89 in - East 9.2 mph - N/A   Clear
3:20 AM 51.8 °F 48.2 °F 88% 29.89 in - East 9.2 mph - N/A   Clear
3:50 AM 50.0 °F 48.2 °F 94% 29.89 in - East 8.1 mph - N/A   Clear
4:20 AM 50.0 °F 46.4 °F 87% 29.89 in - East 8.1 mph - N/A   Clear
4:50 AM 50.0 °F 46.4 °F 87% 29.89 in - East 6.9 mph - N/A   Clear
5:20 AM 50.0 °F 46.4 °F 87% 29.89 in - East 8.1 mph - N/A   Clear
5:50 AM 48.2 °F 46.4 °F 93% 29.89 in - ENE 6.9 mph - N/A   Clear
6:20 AM 50.0 °F 46.4 °F 87% 29.89 in - East 9.2 mph - N/A   Clear
6:50 AM 48.2 °F 46.4 °F 93% 29.89 in - East 8.1 mph - N/A   Clear
7:20 AM 48.2 °F 46.4 °F 93% 29.89 in - East 6.9 mph - N/A   Clear
7:50 AM 48.2 °F 46.4 °F 93% 29.89 in - East 6.9 mph - N/A   Clear
8:20 AM 50.0 °F 46.4 °F 87% 29.92 in - ENE 9.2 mph - N/A   Clear
8:50 AM 51.8 °F 48.2 °F 88% 29.92 in - ENE 9.2 mph - N/A   Clear
9:20 AM 53.6 °F 48.2 °F 82% 29.92 in - ENE 11.5 mph - N/A   Clear
9:50 AM 55.4 °F 50.0 °F 82% 29.92 in - ENE 12.7 mph - N/A   Clear
10:20 AM 55.4 °F 50.0 °F 82% 29.92 in - ENE 13.8 mph - N/A   Clear
10:50 AM 57.2 °F 50.0 °F 77% 29.92 in 6.2 mi ENE 13.8 mph - N/A   Partly Cloudy
11:20 AM 57.2 °F 50.0 °F 77% 29.92 in 6.2 mi ENE 15.0 mph - N/A   Partly Cloudy
11:50 AM 59.0 °F 50.0 °F 72% 29.89 in 6.2 mi ENE 13.8 mph - N/A   Partly Cloudy
12:20 PM 60.8 °F 50.0 °F 68% 29.89 in 6.2 mi ENE 15.0 mph - N/A   Partly Cloudy
12:50 PM 60.8 °F 51.8 °F 72% 29.89 in 6.2 mi ENE 15.0 mph - N/A   Partly Cloudy
1:20 PM 62.6 °F 51.8 °F 68% 29.89 in 6.2 mi NE 13.8 mph - N/A   Partly Cloudy
1:50 PM 62.6 °F 50.0 °F 63% 29.89 in 6.2 mi East 12.7 mph - N/A   Partly Cloudy
2:20 PM 64.4 °F 50.0 °F 59% 29.89 in - ENE 13.8 mph - N/A   Clear
2:50 PM 62.6 °F 51.8 °F 68% 29.89 in 6.2 mi ENE 13.8 mph - N/A   Partly Cloudy
3:20 PM 64.4 °F 51.8 °F 64% 29.86 in 6.2 mi ENE 12.7 mph - N/A   Partly Cloudy
3:50 PM 62.6 °F 50.0 °F 63% 29.86 in 6.2 mi ENE 16.1 mph - N/A   Partly Cloudy
4:20 PM 62.6 °F 50.0 °F 63% 29.86 in 6.2 mi ENE 13.8 mph - N/A   Partly Cloudy
4:50 PM 62.6 °F 50.0 °F 63% 29.86 in 6.2 mi ENE 16.1 mph - N/A   Partly Cloudy
5:20 PM 60.8 °F 50.0 °F 68% 29.86 in - ENE 15.0 mph - N/A   Clear
5:50 PM 59.0 °F 48.2 °F 67% 29.86 in - ENE 15.0 mph - N/A   Clear
6:20 PM 59.0 °F 48.2 °F 67% 29.86 in - ENE 15.0 mph - N/A   Clear
6:50 PM 57.2 °F 46.4 °F 67% 29.86 in - ENE 15.0 mph - N/A   Clear
7:20 PM 55.4 °F 48.2 °F 77% 29.86 in - ENE 10.4 mph - N/A   Clear
7:50 PM 55.4 °F 48.2 °F 77% 29.89 in - ENE 12.7 mph - N/A   Clear
8:20 PM 53.6 °F 48.2 °F 82% 29.89 in - ENE 13.8 mph - N/A   Clear
8:50 PM 53.6 °F 48.2 °F 82% 29.89 in - ENE 12.7 mph - N/A   Clear
9:20 PM 53.6 °F 46.4 °F 77% 29.89 in - ENE 15.0 mph - N/A   Clear
9:50 PM 51.8 °F 46.4 °F 82% 29.89 in - ENE 16.1 mph - N/A   Clear
10:20 PM 51.8 °F 46.4 °F 82% 29.89 in 6.2 mi ENE 16.1 mph - N/A   Unknown
10:50 PM 51.8 °F 46.4 °F 82% 29.89 in - ENE 15.0 mph - N/A   Clear
11:20 PM 51.8 °F 46.4 °F 82% 29.89 in - ENE 16.1 mph - N/A   Clear
11:50 PM 51.8 °F 46.4 °F 82% 29.89 in - ENE 12.7 mph - N/A   Clear